Weather History for Orange, MA

Change the Weather History Date:

Sunday, March 18, 2012

  Actual Average Record
Temperature  
Mean Temperature 50 °F -  
Max Temperature 69 °F 38 °F 69 °F (2012)
Min Temperature 30 °F 20 °F 8 °F (2014)
Degree Days  
Heating Degree Days 16    
Moisture  
Dew Point 37 °F    
Average Humidity 93    
Maximum Humidity 100    
Minimum Humidity 49    
Precipitation  
Precipitation 0.00 in - - ()
Sea Level Pressure  
Sea Level Pressure 30.27 in    
Wind  
Wind Speed 1 mph (South)    
Max Wind Speed 10 mph    
Max Gust Speed -    
Visibility 4 miles    
Events Fog    
Averages and records for this station are not official NWS values.
T = Trace of Precipitation, MM = Missing Value Source: NWS Daily Summary

Daily Weather History Graph

Daily Weather History Graph

Search for Another Location

Airport:

Trip Planner

Search our weather history database for the weather conditions in past years. The results will help you decide how hot, cold, wet, or windy it might be!

Date:

Astronomy

Mar. 18, 2012 Rise Set
Actual Time 6:55 AM EDT 6:59 PM EDT
Civil Twilight 6:27 AM EDT 7:27 PM EDT
Nautical Twilight 5:54 AM EDT 8:00 PM EDT
Astronomical Twilight 5:20 AM EDT 8:34 PM EDT
Moon 4:37 AM EDT (3/18) 3:19 PM EDT (3/18)
Length of Visible Light 13h 00m
Length of Day
12h 04m
Waning Crescent, 15% of the Moon is Illuminated
Mar 18
Waning Crescent
Mar 22
New
Mar 30
First Quarter
Apr 6
Full
Apr 13
Last Quarter

Hourly Weather History & Observations

Time (EDT) Temp. Windchill Dew Point Humidity Pressure Visibility Wind Dir Wind Speed Gust Speed Precip Events Conditions
12:52 AM 35.1 °F - 35.1 °F 100% 30.34 in 0.5 mi Calm Calm - N/A Fog Fog
1:52 AM 33.1 °F - 32.0 °F 96% 30.34 in 0.8 mi Calm Calm - N/A   Mist
2:11 AM 32.0 °F - 32.0 °F 100% 30.31 in 1.0 mi Calm Calm - N/A   Mist
2:19 AM 32.0 °F - 32.0 °F 100% 30.31 in 0.8 mi Calm Calm - N/A   Mist
2:52 AM 32.0 °F - 30.9 °F 96% 30.32 in 0.2 mi Calm Calm - N/A Fog Fog
3:26 AM 30.2 °F - 30.2 °F 100% 30.30 in 1.2 mi Calm Calm - N/A   Scattered Clouds
3:29 AM 30.2 °F - 30.2 °F 100% 30.30 in 2.0 mi Calm Calm - N/A   Partly Cloudy
3:37 AM 30.2 °F - 30.2 °F 100% 30.30 in 6.0 mi Calm Calm - N/A   Partly Cloudy
3:52 AM 30.9 °F - 30.9 °F 100% 30.32 in 3.0 mi Calm Calm - N/A   Partly Cloudy
4:18 AM 30.2 °F - 30.2 °F 100% 30.30 in 2.5 mi Calm Calm - N/A   Partly Cloudy
4:26 AM 30.2 °F - 30.2 °F 100% 30.30 in 5.0 mi Calm Calm - N/A   Scattered Clouds
4:31 AM 30.2 °F - 30.2 °F 100% 30.30 in 2.5 mi Calm Calm - N/A   Mostly Cloudy
4:33 AM 30.2 °F - 30.2 °F 100% 30.30 in 1.2 mi Calm Calm - N/A   Mostly Cloudy
4:36 AM 30.2 °F - 30.2 °F 100% 30.30 in 0.8 mi Calm Calm - N/A   Mist
4:52 AM 30.9 °F - 30.0 °F 96% 30.31 in 0.2 mi Calm Calm - N/A Fog Light Freezing Fog
5:34 AM 30.2 °F - 30.2 °F 100% 30.30 in 1.2 mi Calm Calm - N/A   Overcast
5:38 AM 30.2 °F - 30.2 °F 100% 30.30 in 2.0 mi Calm Calm - N/A   Overcast
5:49 AM 30.2 °F - 30.2 °F 100% 30.30 in 4.0 mi Calm Calm - N/A   Mostly Cloudy
5:52 AM 30.0 °F - 30.0 °F 100% 30.32 in 4.0 mi Calm Calm - N/A   Mostly Cloudy
6:01 AM 30.2 °F - 30.2 °F 100% 30.30 in 5.0 mi Calm Calm - N/A   Scattered Clouds
6:18 AM 30.2 °F - 30.2 °F 100% 30.30 in 1.2 mi Calm Calm - N/A   Scattered Clouds
6:20 AM 30.2 °F - 30.2 °F 100% 30.30 in 0.8 mi Calm Calm - N/A   Mist
6:27 AM 30.2 °F - 30.2 °F 100% 30.30 in 0.2 mi Calm Calm - N/A Fog Light Freezing Fog
6:48 AM 30.2 °F - 30.2 °F 100% 30.30 in 1.2 mi Calm Calm - N/A   Overcast
6:50 AM 30.2 °F - 30.2 °F 100% 30.30 in 2.0 mi Calm Calm - N/A   Overcast
6:52 AM 30.9 °F - 30.9 °F 100% 30.32 in 2.5 mi Calm Calm - N/A   Overcast
7:01 AM 30.2 °F - 30.2 °F 100% 30.30 in 3.0 mi Calm Calm - N/A   Overcast
7:29 AM 32.0 °F - 32.0 °F 100% 30.30 in 5.0 mi Calm Calm - N/A   Overcast
7:52 AM 33.1 °F - 32.0 °F 96% 30.32 in 7.0 mi Calm Calm - N/A   Overcast
8:52 AM 37.9 °F - 37.9 °F 100% 30.33 in 4.0 mi Calm Calm - N/A   Overcast
9:18 AM 41.0 °F 38.0 °F 41.0 °F 100% 30.31 in 2.5 mi South 4.6 mph - N/A   Overcast
9:52 AM 41.0 °F 36.4 °F 41.0 °F 100% 30.32 in 2.5 mi South 6.9 mph - N/A   Overcast
10:02 AM 42.8 °F 40.1 °F 41.0 °F 93% 30.31 in 3.0 mi SSE 4.6 mph - N/A   Overcast
10:52 AM 44.1 °F 41.5 °F 43.0 °F 96% 30.32 in 9.0 mi South 4.6 mph - N/A   Overcast
11:15 AM 46.4 °F 43.5 °F 42.8 °F 87% 30.30 in 10.0 mi SSE 5.8 mph - N/A   Overcast
11:44 AM 48.2 °F - 44.6 °F 87% 30.29 in 10.0 mi Variable 6.9 mph - N/A   Scattered Clouds
11:52 AM 50.0 °F - 44.1 °F 80% 30.30 in 10.0 mi SSW 6.9 mph - N/A   Partly Cloudy
12:52 PM 54.0 °F - 46.0 °F 75% 30.27 in 10.0 mi SSW 9.2 mph - N/A   Clear
1:52 PM 59.0 °F - 46.9 °F 64% 30.24 in 10.0 mi South 10.4 mph - N/A   Clear
2:52 PM 64.9 °F - 48.0 °F 54% 30.20 in 10.0 mi South 8.1 mph - N/A   Clear
3:52 PM 68.0 °F - 48.9 °F 50% 30.19 in 10.0 mi SSW 9.2 mph - N/A   Clear
4:52 PM 69.1 °F - 48.9 °F 49% 30.17 in 10.0 mi South 10.4 mph - N/A   Clear
6:52 PM 63.0 °F - 48.0 °F 58% 30.16 in 10.0 mi Calm Calm - N/A   Clear
7:52 PM 53.1 °F - 48.9 °F 86% 30.16 in 10.0 mi Calm Calm - N/A   Clear
8:52 PM 48.9 °F - 46.9 °F 93% 30.17 in 10.0 mi Calm Calm - N/A   Clear
9:52 PM 46.0 °F - 45.0 °F 96% 30.17 in 7.0 mi Calm Calm - N/A   Clear
9:56 PM 44.6 °F - 44.6 °F 100% 30.15 in 1.5 mi Calm Calm - N/A   Clear
9:58 PM 44.6 °F - 44.6 °F 100% 30.16 in 0.8 mi Calm Calm - N/A   Clear
10:52 PM 42.1 °F - 42.1 °F 100% 30.18 in 0.5 mi Calm Calm - N/A Fog Fog
11:42 PM 39.2 °F - 39.2 °F 100% 30.16 in 0.5 mi Calm Calm - N/A Fog Fog
11:48 PM 41.0 °F - 39.2 °F 93% 30.16 in 0.5 mi Calm Calm - N/A Fog Fog
11:52 PM 39.9 °F - 39.9 °F 100% 30.17 in 0.2 mi Calm Calm - N/A Fog Fog